| time (UTC) | temp C | wind direction | speed KPH | gust KPH | rain 1hr cm | rain 24hr cm | rain mn cm | humidity % | barometer mb |
| 20260505210221 | 31 | 193 | 11.3 | 19.3 | 0.00 | 0.00 | 0.00 | 61 | 1002.9 |
| 20260505205455 | 31 | 171 | 11.3 | 20.9 | 0.00 | 0.00 | 0.00 | 61 | 1002.9 |
| 20260505204954 | 31 | 132 | 11.3 | 22.5 | 0.00 | 0.00 | 0.00 | 60 | 1003.0 |
| 20260505204455 | 31 | 142 | 12.9 | 22.5 | 0.00 | 0.00 | 0.00 | 60 | 1003.0 |
| 20260505203952 | 31 | 166 | 14.5 | 27.4 | 0.00 | 0.00 | 0.00 | 60 | 1003.1 |
| 20260505203658 | 31 | 153 | 12.9 | 27.4 | 0.00 | 0.00 | 0.00 | 60 | 1003.3 |
| 20260505203651 | 31 | 147 | 12.9 | 27.4 | 0.00 | 0.00 | 0.00 | 59 | 1003.1 |
| 20260505202453 | 31 | 177 | 12.9 | 27.4 | 0.00 | 0.00 | 0.00 | 60 | 1003.3 |
| 20260505201951 | 31 | 213 | 12.9 | 25.7 | 0.00 | 0.00 | 0.00 | 59 | 1003.4 |
| 20260505201451 | 31 | 142 | 12.9 | 27.4 | 0.00 | 0.00 | 0.00 | 63 | 1003.4 |
| 20260505200950 | 31 | 184 | 12.9 | 27.4 | 0.00 | 0.00 | 0.00 | 62 | 1003.4 |
| 20260505200445 | 30 | 182 | 14.5 | 27.4 | 0.00 | 0.00 | 0.00 | 61 | 1003.4 |
| 20260505195938 | 31 | 209 | 12.9 | 27.4 | 0.00 | 0.00 | 0.00 | 61 | 1003.5 |
| 20260505195432 | 30 | 184 | 12.9 | 30.6 | 0.00 | 0.00 | 0.00 | 62 | 1003.4 |
| 20260505194928 | 30 | 161 | 14.5 | 30.6 | 0.00 | 0.00 | 0.00 | 63 | 1003.5 |
| 20260505194422 | 30 | 180 | 14.5 | 29.0 | 0.00 | 0.00 | 0.00 | 63 | 1003.5 |
| 20260505193914 | 30 | 150 | 12.9 | 29.0 | 0.00 | 0.00 | 0.00 | 63 | 1003.6 |
| 20260505193408 | 30 | 173 | 12.9 | 22.5 | 0.00 | 0.00 | 0.00 | 63 | 1003.6 |
| 20260505192902 | 30 | 173 | 12.9 | 24.1 | 0.00 | 0.00 | 0.00 | 64 | 1003.6 |
| 20260505192357 | 30 | 152 | 14.5 | 27.4 | 0.00 | 0.00 | 0.00 | 64 | 1003.6 |
| 20260505191850 | 30 | 150 | 16.1 | 29.0 | 0.00 | 0.00 | 0.00 | 64 | 1003.6 |
| 20260505191344 | 30 | 186 | 14.5 | 29.0 | 0.00 | 0.00 | 0.00 | 64 | 1003.7 |
| 20260505190838 | 29 | 159 | 14.5 | 29.0 | 0.00 | 0.00 | 0.00 | 66 | 1003.8 |
| 20260505190332 | 29 | 165 | 14.5 | 29.0 | 0.00 | 0.00 | 0.00 | 66 | 1003.8 |
| 20260505185827 | 29 | 134 | 14.5 | 27.4 | 0.00 | 0.00 | 0.00 | 65 | 1003.9 |
| 20260505185320 | 29 | 153 | 12.9 | 27.4 | 0.00 | 0.00 | 0.00 | 66 | 1003.9 |
| 20260505184814 | 29 | 196 | 14.5 | 27.4 | 0.00 | 0.00 | 0.00 | 67 | 1003.9 |
| 20260505184308 | 28 | 176 | 14.5 | 27.4 | 0.00 | 0.00 | 0.00 | 66 | 1004.0 |
| 20260505183804 | 28 | 171 | 12.9 | 29.0 | 0.00 | 0.00 | 0.00 | 67 | 1004.1 |
| 20260505183256 | 28 | 126 | 12.9 | 29.0 | 0.00 | 0.00 | 0.00 | 67 | 1004.1 |
| 20260505182751 | 28 | 156 | 12.9 | 29.0 | 0.00 | 0.00 | 0.00 | 67 | 1003.9 |
| 20260505182504 | 28 | 150 | 12.9 | 29.0 | 0.00 | 0.00 | 0.00 | 66 | 1004.1 |
| 20260505182002 | 28 | 181 | 14.5 | 22.5 | 0.00 | 0.00 | 0.00 | 67 | 1004.1 |
| 20260505181231 | 28 | 152 | 12.9 | 25.7 | 0.00 | 0.00 | 0.00 | 68 | 1004.0 |
| 20260505180945 | 28 | 150 | 12.9 | 25.7 | 0.00 | 0.00 | 0.00 | 67 | 1004.1 |
| 20260505180220 | 28 | 133 | 14.5 | 25.7 | 0.00 | 0.00 | 0.00 | 67 | 1004.2 |
| 20260505175940 | 28 | 120 | 16.1 | 25.7 | 0.00 | 0.00 | 0.00 | 67 | 1004.1 |
| 20260505175434 | 28 | 179 | 14.5 | 27.4 | 0.00 | 0.00 | 0.00 | 67 | 1004.0 |
| 20260505174702 | 28 | 187 | 14.5 | 32.2 | 0.00 | 0.00 | 0.00 | 66 | 1004.2 |
| 20260505174422 | 28 | 152 | 14.5 | 32.2 | 0.00 | 0.00 | 0.00 | 67 | 1004.1 |
| 20260505173651 | 28 | 163 | 14.5 | 30.6 | 0.00 | 0.00 | 0.00 | 67 | 1004.0 |
| 20260505173408 | 28 | 206 | 14.5 | 30.6 | 0.00 | 0.00 | 0.00 | 67 | 1004.0 |
| 20260505172638 | 27 | 196 | 14.5 | 30.6 | 0.00 | 0.00 | 0.00 | 67 | 1004.0 |
| 20260505172132 | 27 | 213 | 14.5 | 24.1 | 0.00 | 0.00 | 0.00 | 68 | 1004.1 |
| 20260505171627 | 28 | 109 | 14.5 | 37.0 | 0.00 | 0.00 | 0.00 | 67 | 1004.2 |
| 20260505171120 | 28 | 156 | 16.1 | 37.0 | 0.00 | 0.00 | 0.00 | 67 | 1004.2 |
| 20260505171051 | 27 | 188 | 16.1 | 35.4 | 0.00 | 0.00 | 0.00 | 68 | 1004.3 |
| 20260505170109 | 27 | 127 | 14.5 | 35.4 | 0.00 | 0.00 | 0.00 | 70 | 1004.3 |
| 20260505165602 | 27 | 141 | 14.5 | 29.0 | 0.00 | 0.00 | 0.00 | 70 | 1004.2 |
| 20260505165317 | 26 | 165 | 14.5 | 29.0 | 0.00 | 0.00 | 0.00 | 71 | 1004.3 |
| 20260505164550 | 26 | 212 | 14.5 | 27.4 | 0.00 | 0.00 | 0.00 | 71 | 1004.4 |
| 20260505164045 | 26 | 184 | 14.5 | 30.6 | 0.00 | 0.00 | 0.00 | 71 | 1004.4 |
| 20260505163538 | 26 | 146 | 14.5 | 30.6 | 0.00 | 0.00 | 0.00 | 70 | 1004.1 |
| 20260505163255 | 27 | 166 | 12.9 | 29.0 | 0.00 | 0.00 | 0.00 | 70 | 1004.1 |
| 20260505162527 | 26 | 144 | 14.5 | 30.6 | 0.00 | 0.00 | 0.00 | 71 | 1004.2 |
| 20260505162021 | 26 | 109 | 14.5 | 29.0 | 0.00 | 0.00 | 0.00 | 71 | 1004.0 |
| 20260505161515 | 26 | 204 | 12.9 | 25.7 | 0.00 | 0.00 | 0.00 | 72 | 1004.1 |
| 20260505161008 | 26 | 134 | 14.5 | 27.4 | 0.00 | 0.00 | 0.00 | 72 | 1004.2 |
| 20260505160954 | 26 | 155 | 16.1 | 29.0 | 0.00 | 0.00 | 0.00 | 73 | 1004.1 |
| 20260505160230 | 26 | 207 | 16.1 | 30.6 | 0.00 | 0.00 | 0.00 | 73 | 1004.0 |
| 20260505153008 | 25 | 149 | 16.1 | 41.8 | 0.00 | 0.00 | 0.00 | 75 | 1004.1 |
| 20260505152509 | 25 | 198 | 17.7 | 41.8 | 0.00 | 0.00 | 0.00 | 76 | 1004.0 |
| 20260505152009 | 25 | 193 | 16.1 | 33.8 | 0.00 | 0.00 | 0.00 | 77 | 1004.0 |
| 20260505151509 | 24 | 148 | 14.5 | 29.0 | 0.00 | 0.00 | 0.00 | 78 | 1004.1 |
| 20260505151009 | 24 | 188 | 14.5 | 25.7 | 0.00 | 0.00 | 0.00 | 78 | 1004.1 |
| 20260505150509 | 23 | 148 | 12.9 | 32.2 | 0.00 | 0.00 | 0.00 | 79 | 1004.2 |
| 20260505140454 | 22 | 158 | 11.3 | 24.1 | 0.00 | 0.00 | 0.00 | 82 | 1004.1 |
| 20260505124952 | 22 | 152 | 12.9 | 24.1 | 0.00 | 0.00 | 0.00 | 83 | 1003.9 |
| 20260505124715 | 21 | 136 | 12.9 | 24.1 | 0.00 | 0.00 | 0.00 | 83 | 1003.7 |
| 20260505123952 | 21 | 144 | 11.3 | 24.1 | 0.00 | 0.00 | 0.00 | 83 | 1003.7 |
| 20260505123718 | 21 | 155 | 9.7 | 22.5 | 0.00 | 0.00 | 0.00 | 83 | 1003.5 |
| 20260505123211 | 21 | 184 | 9.7 | 25.7 | 0.00 | 0.00 | 0.00 | 83 | 1003.5 |
| 20260505122450 | 21 | 110 | 12.9 | 25.7 | 0.00 | 0.00 | 0.00 | 83 | 1003.3 |
| 20260505121949 | 21 | 145 | 14.5 | 25.7 | 0.00 | 0.00 | 0.00 | 83 | 1003.3 |
| 20260505121450 | 21 | 152 | 14.5 | 25.7 | 0.00 | 0.00 | 0.00 | 83 | 1003.4 |
| 20260505120951 | 21 | 126 | 14.5 | 25.7 | 0.00 | 0.00 | 0.00 | 83 | 1003.3 |
| 20260505120451 | 21 | 167 | 14.5 | 35.4 | 0.00 | 0.00 | 0.00 | 83 | 1003.3 |
| 20260505115950 | 21 | 137 | 16.1 | 35.4 | 0.00 | 0.00 | 0.00 | 83 | 1003.1 |
| 20260505115451 | 21 | 144 | 14.5 | 29.0 | 0.00 | 0.00 | 0.00 | 83 | 1003.1 |
| 20260505114947 | 21 | 130 | 14.5 | 29.0 | 0.00 | 0.00 | 0.00 | 83 | 1003.1 |
| 20260505114446 | 21 | 169 | 14.5 | 30.6 | 0.00 | 0.00 | 0.00 | 83 | 1003.2 |
| 20260505114431 | 21 | 136 | 14.5 | 30.6 | 0.00 | 0.00 | 0.00 | 83 | 1003.2 |
| 20260505113446 | 21 | 173 | 12.9 | 24.1 | 0.00 | 0.00 | 0.00 | 83 | 1003.1 |
| 20260505113210 | 21 | 198 | 12.9 | 24.1 | 0.00 | 0.00 | 0.00 | 83 | 1003.0 |
| 20260505112446 | 21 | 143 | 12.9 | 24.1 | 0.00 | 0.00 | 0.00 | 83 | 1003.2 |
| 20260505111945 | 21 | 179 | 11.3 | 20.9 | 0.00 | 0.00 | 0.00 | 83 | 1003.2 |
| 20260505111446 | 21 | 128 | 12.9 | 20.9 | 0.00 | 0.00 | 0.00 | 83 | 1003.3 |
| 20260505110947 | 21 | 160 | 14.5 | 27.4 | 0.00 | 0.00 | 0.00 | 83 | 1003.3 |
| 20260505110442 | 21 | 116 | 12.9 | 27.4 | 0.00 | 0.00 | 0.00 | 83 | 1003.2 |
| 20260505102204 | 21 | 105 | 14.5 | 30.6 | 0.00 | 0.00 | 0.00 | 82 | 1003.2 |
| 20260505101438 | 21 | 150 | 14.5 | 27.4 | 0.00 | 0.00 | 0.00 | 82 | 1003.2 |
| 20260505100936 | 21 | 180 | 14.5 | 29.0 | 0.00 | 0.00 | 0.00 | 82 | 1003.2 |
| 20260505100920 | 21 | 219 | 12.9 | 29.0 | 0.00 | 0.00 | 0.00 | 82 | 1003.3 |
| 20260505095936 | 21 | 145 | 14.5 | 27.4 | 0.00 | 0.00 | 0.00 | 82 | 1003.3 |
| 20260505095436 | 21 | 162 | 14.5 | 30.6 | 0.00 | 0.00 | 0.00 | 82 | 1003.3 |
| 20260505094936 | 21 | 164 | 12.9 | 30.6 | 0.00 | 0.00 | 0.00 | 82 | 1003.4 |
| 20260505094433 | 21 | 143 | 11.3 | 25.7 | 0.00 | 0.00 | 0.00 | 82 | 1003.4 |
| 20260505093935 | 21 | 184 | 14.5 | 30.6 | 0.00 | 0.00 | 0.00 | 82 | 1003.4 |
| 20260505093700 | 21 | 189 | 14.5 | 30.6 | 0.00 | 0.00 | 0.00 | 82 | 1003.6 |
| 20260505092932 | 21 | 126 | 12.9 | 27.4 | 0.00 | 0.00 | 0.00 | 82 | 1003.5 |
| 20260505092432 | 21 | 161 | 12.9 | 27.4 | 0.00 | 0.00 | 0.00 | 82 | 1003.6 |
| 20260505091932 | 21 | 157 | 14.5 | 29.0 | 0.00 | 0.00 | 0.00 | 82 | 1003.6 |
| 20260505091431 | 21 | 172 | 12.9 | 32.2 | 0.00 | 0.00 | 0.00 | 82 | 1003.6 |
| 20260505090931 | 21 | 164 | 14.5 | 32.2 | 0.00 | 0.00 | 0.00 | 82 | 1003.6 |
| 20260505090431 | 21 | 159 | 16.1 | 35.4 | 0.00 | 0.00 | 0.00 | 82 | 1003.4 |
| 20260505085924 | 21 | 148 | 16.1 | 35.4 | 0.00 | 0.00 | 0.00 | 82 | 1003.6 |
| 20260505085418 | 21 | 167 | 14.5 | 29.0 | 0.00 | 0.00 | 0.00 | 82 | 1003.4 |
| 20260505084911 | 21 | 167 | 14.5 | 27.4 | 0.00 | 0.00 | 0.00 | 82 | 1003.6 |
| 20260505084405 | 21 | 175 | 16.1 | 29.0 | 0.00 | 0.00 | 0.00 | 82 | 1003.5 |
| 20260505083900 | 21 | 155 | 16.1 | 40.2 | 0.00 | 0.00 | 0.00 | 82 | 1003.6 |
| 20260505083353 | 21 | 144 | 14.5 | 40.2 | 0.00 | 0.00 | 0.00 | 82 | 1003.6 |
| 20260505082847 | 21 | 161 | 16.1 | 27.4 | 0.00 | 0.00 | 0.00 | 82 | 1003.6 |
| 20260505082602 | 21 | 193 | 16.1 | 29.0 | 0.00 | 0.00 | 0.00 | 82 | 1003.6 |
| 20260505081835 | 21 | 180 | 14.5 | 29.0 | 0.00 | 0.00 | 0.00 | 82 | 1003.7 |
| 20260505081336 | 21 | 149 | 14.5 | 29.0 | 0.00 | 0.00 | 0.00 | 82 | 1003.8 |
| 20260505080836 | 21 | 161 | 14.5 | 29.0 | 0.00 | 0.00 | 0.00 | 82 | 1003.7 |
| 20260505080337 | 21 | 137 | 14.5 | 30.6 | 0.00 | 0.00 | 0.00 | 82 | 1003.8 |
| 20260505080058 | 21 | 130 | 16.1 | 30.6 | 0.00 | 0.00 | 0.00 | 82 | 1003.8 |
| 20260505075554 | 21 | 142 | 16.1 | 32.2 | 0.00 | 0.00 | 0.00 | 82 | 1003.9 |
| 20260505074833 | 21 | 155 | 16.1 | 32.2 | 0.00 | 0.00 | 0.00 | 82 | 1004.0 |
| 20260505074557 | 21 | 130 | 14.5 | 25.7 | 0.00 | 0.00 | 0.00 | 81 | 1004.1 |
| 20260505073833 | 21 | 130 | 14.5 | 29.0 | 0.00 | 0.00 | 0.00 | 81 | 1004.0 |
| 20260505073333 | 21 | 164 | 14.5 | 29.0 | 0.00 | 0.00 | 0.00 | 81 | 1004.3 |
| 20260505072830 | 21 | 145 | 14.5 | 25.7 | 0.00 | 0.00 | 0.00 | 81 | 1004.3 |
| 20260505072330 | 21 | 111 | 16.1 | 29.0 | 0.00 | 0.00 | 0.00 | 81 | 1004.3 |
| 20260505071831 | 21 | 155 | 16.1 | 29.0 | 0.00 | 0.00 | 0.00 | 81 | 1004.4 |
| 20260505071330 | 21 | 134 | 14.5 | 27.4 | 0.00 | 0.00 | 0.00 | 81 | 1004.5 |
| 20260505070829 | 21 | 153 | 14.5 | 27.4 | 0.00 | 0.00 | 0.00 | 80 | 1004.4 |
| 20260505070331 | 22 | 110 | 14.5 | 30.6 | 0.00 | 0.00 | 0.00 | 80 | 1004.6 |
| 20260505070046 | 22 | 149 | 14.5 | 30.6 | 0.00 | 0.00 | 0.00 | 80 | 1004.6 |
| 20260505065314 | 22 | 167 | 12.9 | 25.7 | 0.00 | 0.00 | 0.00 | 80 | 1004.7 |
| 20260505064809 | 22 | 143 | 12.9 | 27.4 | 0.00 | 0.00 | 0.00 | 80 | 1004.7 |
| 20260505064303 | 22 | 143 | 14.5 | 27.4 | 0.00 | 0.00 | 0.00 | 80 | 1004.8 |
| 20260505063757 | 22 | 156 | 14.5 | 33.8 | 0.00 | 0.00 | 0.00 | 79 | 1004.8 |
| 20260505063252 | 22 | 109 | 16.1 | 33.8 | 0.00 | 0.00 | 0.00 | 79 | 1004.8 |
| 20260505062746 | 22 | 158 | 16.1 | 27.4 | 0.00 | 0.00 | 0.00 | 79 | 1004.7 |
| 20260505062239 | 22 | 144 | 14.5 | 25.7 | 0.00 | 0.00 | 0.00 | 79 | 1004.8 |
| 20260505061734 | 22 | 145 | 14.5 | 25.7 | 0.00 | 0.00 | 0.00 | 79 | 1004.9 |
| 20260505061227 | 22 | 139 | 12.9 | 24.1 | 0.00 | 0.00 | 0.00 | 79 | 1004.8 |
| 20260505060723 | 22 | 176 | 12.9 | 30.6 | 0.00 | 0.00 | 0.00 | 78 | 1004.9 |
| 20260505060215 | 22 | 157 | 14.5 | 30.6 | 0.00 | 0.00 | 0.00 | 78 | 1004.8 |
| 20260505055710 | 22 | 142 | 12.9 | 24.1 | 0.00 | 0.00 | 0.00 | 78 | 1005.0 |
| 20260505055203 | 22 | 171 | 11.3 | 22.5 | 0.00 | 0.00 | 0.00 | 78 | 1004.8 |
| 20260505054657 | 22 | 143 | 12.9 | 22.5 | 0.00 | 0.00 | 0.00 | 77 | 1004.9 |
| 20260505054411 | 22 | 156 | 11.3 | 20.9 | 0.00 | 0.00 | 0.00 | 77 | 1005.0 |
| 20260505053645 | 22 | 144 | 11.3 | 25.7 | 0.00 | 0.00 | 0.00 | 77 | 1005.0 |
| 20260505053140 | 22 | 145 | 11.3 | 25.7 | 0.00 | 0.00 | 0.00 | 76 | 1005.1 |
| 20260505052633 | 22 | 148 | 11.3 | 22.5 | 0.00 | 0.00 | 0.00 | 76 | 1005.1 |
| 20260505052128 | 22 | 130 | 11.3 | 22.5 | 0.00 | 0.00 | 0.00 | 76 | 1005.1 |
| 20260505051621 | 22 | 167 | 12.9 | 22.5 | 0.00 | 0.00 | 0.00 | 76 | 1005.2 |
| 20260505051115 | 22 | 134 | 12.9 | 29.0 | 0.00 | 0.00 | 0.00 | 76 | 1005.3 |
| 20260505051046 | 22 | 149 | 12.9 | 29.0 | 0.00 | 0.00 | 0.00 | 75 | 1005.2 |
| 20260505050104 | 22 | 144 | 9.7 | 27.4 | 0.00 | 0.00 | 0.00 | 75 | 1005.2 |
| 20260505041535 | 23 | 152 | 8.0 | 24.1 | 0.00 | 0.00 | 0.00 | 72 | 1005.5 |
| 20260505041035 | 23 | 135 | 9.7 | 20.9 | 0.00 | 0.00 | 0.00 | 72 | 1005.6 |
| 20260505040535 | 23 | 124 | 11.3 | 22.5 | 0.00 | 0.00 | 0.00 | 72 | 1005.6 |
| 20260505040035 | 23 | 145 | 11.3 | 22.5 | 0.00 | 0.00 | 0.00 | 71 | 1005.5 |
| 20260505035535 | 23 | 112 | 11.3 | 20.9 | 0.00 | 0.00 | 0.00 | 71 | 1005.6 |
| 20260505035036 | 23 | 130 | 9.7 | 19.3 | 0.00 | 0.00 | 0.00 | 71 | 1005.4 |
| 20260505034537 | 23 | 125 | 11.3 | 27.4 | 0.00 | 0.00 | 0.00 | 71 | 1005.4 |
| 20260505034035 | 23 | 135 | 11.3 | 27.4 | 0.00 | 0.00 | 0.00 | 71 | 1005.3 |
| 20260505033536 | 23 | 144 | 11.3 | 20.9 | 0.00 | 0.00 | 0.00 | 70 | 1005.2 |
| 20260505033035 | 23 | 117 | 12.9 | 24.1 | 0.00 | 0.00 | 0.00 | 70 | 1005.4 |
| 20260505032536 | 23 | 119 | 11.3 | 24.1 | 0.00 | 0.00 | 0.00 | 70 | 1005.5 |
| 20260505032034 | 23 | 141 | 11.3 | 20.9 | 0.00 | 0.00 | 0.00 | 70 | 1005.6 |
| 20260505031531 | 23 | 169 | 11.3 | 20.9 | 0.00 | 0.00 | 0.00 | 70 | 1005.6 |
| 20260505031032 | 23 | 126 | 11.3 | 19.3 | 0.00 | 0.00 | 0.00 | 69 | 1005.6 |
| 20260505030531 | 23 | 175 | 9.7 | 19.3 | 0.00 | 0.00 | 0.00 | 69 | 1005.6 |
| 20260505030031 | 23 | 103 | 11.3 | 20.9 | 0.00 | 0.00 | 0.00 | 69 | 1005.6 |
| 20260505025532 | 23 | 130 | 11.3 | 20.9 | 0.00 | 0.00 | 0.00 | 69 | 1005.6 |
| 20260505025031 | 23 | 136 | 11.3 | 22.5 | 0.00 | 0.00 | 0.00 | 69 | 1005.5 |
| 20260505024531 | 23 | 173 | 11.3 | 22.5 | 0.00 | 0.00 | 0.00 | 69 | 1005.5 |
| 20260505024031 | 23 | 137 | 11.3 | 25.7 | 0.00 | 0.00 | 0.00 | 69 | 1005.6 |
| 20260505023531 | 23 | 151 | 9.7 | 25.7 | 0.00 | 0.00 | 0.00 | 69 | 1005.4 |
| 20260505023027 | 23 | 148 | 9.7 | 22.5 | 0.00 | 0.00 | 0.00 | 68 | 1004.9 |
| 20260505022529 | 23 | 156 | 11.3 | 22.5 | 0.00 | 0.00 | 0.00 | 68 | 1005.1 |
| 20260505022027 | 23 | 140 | 11.3 | 20.9 | 0.00 | 0.00 | 0.00 | 68 | 1005.1 |
| 20260505021527 | 23 | 126 | 11.3 | 19.3 | 0.00 | 0.00 | 0.00 | 68 | 1005.2 |
| 20260505021027 | 23 | 129 | 9.7 | 19.3 | 0.00 | 0.00 | 0.00 | 68 | 1005.1 |
| 20260505020527 | 23 | 137 | 8.0 | 16.1 | 0.00 | 0.00 | 0.00 | 68 | 1005.1 |
| 20260505020028 | 24 | 138 | 8.0 | 20.9 | 0.00 | 0.00 | 0.00 | 67 | 1005.2 |
| 20260505015527 | 24 | 146 | 9.7 | 20.9 | 0.00 | 0.00 | 0.00 | 67 | 1005.2 |
| 20260505015028 | 24 | 134 | 8.0 | 17.7 | 0.00 | 0.00 | 0.00 | 67 | 1005.3 |
| 20260505014523 | 24 | 148 | 9.7 | 19.3 | 0.00 | 0.00 | 0.00 | 67 | 1005.3 |
| 20260505014023 | 24 | 134 | 11.3 | 19.3 | 0.00 | 0.00 | 0.00 | 66 | 1005.3 |
| 20260505013524 | 24 | 113 | 9.7 | 20.9 | 0.00 | 0.00 | 0.00 | 66 | 1005.2 |
| 20260505013023 | 24 | 129 | 11.3 | 20.9 | 0.00 | 0.00 | 0.00 | 66 | 1005.2 |
| 20260505012523 | 24 | 159 | 11.3 | 19.3 | 0.00 | 0.00 | 0.00 | 66 | 1005.2 |
| 20260505012502 | 24 | 170 | 9.7 | 19.3 | 0.00 | 0.00 | 0.00 | 66 | 1005.1 |
| 20260505011523 | 24 | 142 | 9.7 | 22.5 | 0.00 | 0.00 | 0.00 | 65 | 1005.0 |
| 20260505011024 | 25 | 171 | 9.7 | 22.5 | 0.00 | 0.00 | 0.00 | 65 | 1005.1 |
| 20260505010748 | 25 | 162 | 12.9 | 29.0 | 0.00 | 0.00 | 0.00 | 65 | 1005.0 |
| 20260505010025 | 25 | 180 | 12.9 | 29.0 | 0.00 | 0.00 | 0.00 | 65 | 1005.1 |
| 20260505005524 | 25 | 130 | 12.9 | 22.5 | 0.00 | 0.00 | 0.00 | 64 | 1005.2 |
| 20260505005023 | 25 | 133 | 12.9 | 29.0 | 0.00 | 0.00 | 0.00 | 64 | 1005.1 |
| 20260505004524 | 25 | 125 | 14.5 | 33.8 | 0.00 | 0.00 | 0.00 | 63 | 1005.3 |
| 20260505004247 | 25 | 151 | 12.9 | 33.8 | 0.00 | 0.00 | 0.00 | 63 | 1005.3 |
| 20260505003523 | 25 | 132 | 12.9 | 27.4 | 0.00 | 0.00 | 0.00 | 63 | 1005.2 |
| 20260505003023 | 25 | 165 | 16.1 | 32.2 | 0.00 | 0.00 | 0.00 | 62 | 1005.3 |
| 20260505002524 | 25 | 116 | 16.1 | 32.2 | 0.00 | 0.00 | 0.00 | 61 | 1005.3 |
| 20260505002022 | 26 | 183 | 12.9 | 30.6 | 0.00 | 0.00 | 0.00 | 61 | 1005.4 |
| 20260505001519 | 26 | 172 | 11.3 | 25.7 | 0.00 | 0.00 | 0.00 | 61 | 1005.5 |
| 20260505001018 | 26 | 144 | 12.9 | 25.7 | 0.00 | 0.00 | 0.00 | 61 | 1005.6 |
| 20260505000517 | 26 | 115 | 16.1 | 30.6 | 0.00 | 0.00 | 0.00 | 61 | 1005.4 |
| 20260505000017 | 25 | 163 | 17.7 | 30.6 | 0.00 | 0.00 | 0.00 | 61 | 1005.5 |
| 20260504235515 | 26 | 149 | 14.5 | 27.4 | 0.00 | 0.00 | 0.00 | 61 | 1005.6 |
| 20260504235015 | 26 | 167 | 12.9 | 27.4 | 0.00 | 0.00 | 0.00 | 61 | 1005.6 |
| 20260504234515 | 26 | 144 | 16.1 | 27.4 | 0.00 | 0.00 | 0.00 | 61 | 1005.7 |
| 20260504234013 | 26 | 149 | 17.7 | 38.6 | 0.00 | 0.00 | 0.00 | 60 | 1005.7 |
| 20260504233514 | 26 | 120 | 16.1 | 38.6 | 0.00 | 0.00 | 0.00 | 60 | 1005.9 |
| 20260504233013 | 26 | 138 | 16.1 | 37.0 | 0.00 | 0.00 | 0.00 | 59 | 1005.7 |
| 20260504232511 | 26 | 128 | 17.7 | 35.4 | 0.00 | 0.00 | 0.00 | 59 | 1005.7 |
| 20260504232010 | 26 | 196 | 16.1 | 33.8 | 0.00 | 0.00 | 0.00 | 58 | 1005.7 |
| 20260504231511 | 26 | 162 | 17.7 | 32.2 | 0.00 | 0.00 | 0.00 | 58 | 1005.9 |
| 20260504231011 | 26 | 121 | 19.3 | 38.6 | 0.00 | 0.00 | 0.00 | 58 | 1006.0 |
| 20260504230512 | 26 | 152 | 19.3 | 38.6 | 0.00 | 0.00 | 0.00 | 58 | 1006.1 |
| 20260504230011 | 26 | 117 | 17.7 | 33.8 | 0.00 | 0.00 | 0.00 | 58 | 1006.0 |
| 20260504225509 | 27 | 169 | 16.1 | 30.6 | 0.00 | 0.00 | 0.00 | 56 | 1006.1 |
| 20260504225007 | 27 | 98 | 16.1 | 30.6 | 0.00 | 0.00 | 0.00 | 56 | 1006.1 |
| 20260504224507 | 27 | 185 | 16.1 | 32.2 | 0.00 | 0.00 | 0.00 | 56 | 1006.1 |
| 20260504224007 | 27 | 134 | 14.5 | 32.2 | 0.00 | 0.00 | 0.00 | 57 | 1006.0 |
| 20260504223507 | 27 | 151 | 14.5 | 32.2 | 0.00 | 0.00 | 0.00 | 56 | 1005.9 |
| 20260504223007 | 27 | 142 | 14.5 | 32.2 | 0.00 | 0.00 | 0.00 | 57 | 1006.0 |
| 20260504222731 | 27 | 133 | 16.1 | 29.0 | 0.00 | 0.00 | 0.00 | 57 | 1006.0 |
| 20260504222227 | 27 | 173 | 16.1 | 29.0 | 0.00 | 0.00 | 0.00 | 56 | 1006.1 |
| 20260504221505 | 27 | 151 | 16.1 | 32.2 | 0.00 | 0.00 | 0.00 | 56 | 1006.2 |
| 20260504221005 | 27 | 116 | 16.1 | 32.2 | 0.00 | 0.00 | 0.00 | 57 | 1006.2 |
| 20260504220505 | 27 | 168 | 16.1 | 30.6 | 0.00 | 0.00 | 0.00 | 55 | 1006.3 |
| 20260504220006 | 27 | 150 | 14.5 | 32.2 | 0.00 | 0.00 | 0.00 | 56 | 1006.4 |
| 20260504215504 | 27 | 147 | 17.7 | 32.2 | 0.00 | 0.00 | 0.00 | 56 | 1006.5 |
| 20260504215004 | 27 | 184 | 17.7 | 32.2 | 0.00 | 0.00 | 0.00 | 55 | 1006.5 |
| 20260504214504 | 27 | 192 | 17.7 | 32.2 | 0.00 | 0.00 | 0.00 | 55 | 1006.6 |
| 20260504214004 | 27 | 150 | 17.7 | 30.6 | 0.00 | 0.00 | 0.00 | 56 | 1006.7 |
| 20260504213458 | 27 | 146 | 16.1 | 30.6 | 0.00 | 0.00 | 0.00 | 55 | 1007.0 |
| 20260504212952 | 27 | 136 | 17.7 | 30.6 | 0.00 | 0.00 | 0.00 | 54 | 1007.0 |
| 20260504212447 | 27 | 151 | 17.7 | 32.2 | 0.00 | 0.00 | 0.00 | 55 | 1006.9 |
| 20260504211940 | 27 | 138 | 17.7 | 32.2 | 0.00 | 0.00 | 0.00 | 56 | 1007.1 |
| 20260504211434 | 27 | 105 | 19.3 | 35.4 | 0.00 | 0.00 | 0.00 | 55 | 1007.1 |
| 20260504210927 | 27 | 149 | 19.3 | 35.4 | 0.00 | 0.00 | 0.00 | 55 | 1007.2 |
| 20260504210422 | 27 | 121 | 17.7 | 35.4 | 0.00 | 0.00 | 0.00 | 54 | 1007.2 |